This is the latest recevied weather packets stored in our database for station/object WD9U. If no packets are shown the sender has not sent any weather packets the latest 10 day(s).
| Time | Temp. | Humidity | Pressure | Rain* | Wind** | Luminosity | Snow |
|---|---|---|---|---|---|---|---|
| 1777853591 | 18.33° C | 26% | 1003.2 hPa | 0 mm | - | 55 W/m² | - |
| 1777853230 | 18.33° C | 25% | 1003.2 hPa | 0 mm | - | 82 W/m² | - |
| 1777853113 | 18.89° C | 26% | 1003.2 hPa | 0 mm | - | 76 W/m² | - |
| 1777852870 | 18.89° C | 25% | 1003.2 hPa | 0 mm | - | 82 W/m² | - |
| 1777852510 | 18.89° C | 24% | 1003.1 hPa | 0 mm | - | 78 W/m² | - |
| 1777852150 | 18.89° C | 24% | 1003.3 hPa | 0 mm | - | 217 W/m² | - |
| 1777851913 | 18.89° C | 24% | 1003.3 hPa | 0 mm | - | 205 W/m² | - |
| 1777851790 | 18.89° C | 24% | 1003.4 hPa | 0 mm | - | 220 W/m² | - |
| 1777851430 | 18.89° C | 25% | 1003.5 hPa | 0 mm | - | 242 W/m² | - |
| 1777851070 | 18.89° C | 26% | 1003.6 hPa | 0 mm | - | 260 W/m² | - |
| 1777850710 | 18.33° C | 25% | 1003.7 hPa | 0 mm | - | 308 W/m² | - |
| 1777850350 | 18.33° C | 26% | 1003.8 hPa | 0 mm | - | 371 W/m² | - |
| 1777849990 | 18.33° C | 25% | 1003.8 hPa | 0 mm | - | 232 W/m² | - |
| 1777849630 | 18.89° C | 25% | 1003.9 hPa | 0 mm | - | 130 W/m² | - |
| 1777849513 | 18.89° C | 24% | 1003.8 hPa | 0 mm | - | 246 W/m² | - |
| 1777849270 | 18.89° C | 24% | 1003.8 hPa | 0 mm | - | 194 W/m² | - |
| 1777848910 | 18.89° C | 24% | 1003.9 hPa | 0 mm | - | 335 W/m² | - |
| 1777848550 | 18.89° C | 23% | 1003.8 hPa | 0 mm | - | 368 W/m² | - |
| 1777848313 | 18.89° C | 25% | 1003.8 hPa | 0 mm | - | 302 W/m² | - |
| 1777848189 | 18.89° C | 25% | 1003.8 hPa | 0 mm | - | 336 W/m² | - |
| 1777847828 | 19.44° C | 24% | 1003.9 hPa | 0 mm | - | 370 W/m² | - |
| 1777847468 | 19.44° C | 22% | 1003.8 hPa | 0 mm | - | 435 W/m² | - |
| 1777847108 | 19.44° C | 21% | 1003.8 hPa | 0 mm | - | 444 W/m² | - |
| 1777846748 | 18.89° C | 22% | 1003.8 hPa | 0 mm | - | 444 W/m² | - |
| 1777846388 | 18.89° C | 21% | 1003.7 hPa | 0 mm | - | 446 W/m² | - |
* Rain latest hour (hover to see other rain measurements)
** Current wind speed in m/s (hover to see current wind gust speed)